DW9234 Weather Reports


time (UTC)temp
F
wind
direction
speed
knots
gust
knots
rain 1hr
in
rain 24hr
in
rain mn
in
humidity
%
barometer
mb
20200803153350 82 286 0.9 3.5 0.00 0.00 0.00 49 1019.2
20200803152350 82 222 0.0 1.7 0.00 0.00 0.00 51 1019.3
20200803151350 82 124 1.7 3.5 0.00 0.00 0.00 52 1019.3
20200803150350 81 286 0.9 4.3 0.00 0.00 0.00 52 1019.3
20200803145350 81 261 0.9 3.5 0.00 0.00 0.00 53 1019.1
20200803144350 80 261 0.0 3.5 0.00 0.00 0.00 55 1019.2
20200803143350 80 262 0.0 3.5 0.00 0.00 0.00 55 1019.1
20200803142350 80 115 0.9 1.7 0.00 0.00 0.00 55 1019.1
20200803141350 79 288 0.0 3.5 0.00 0.00 0.00 57 1019.3
20200803140351 79 275 1.7 1.7 0.00 0.00 0.00 58 1019.1
20200803135350 78 244 0.0 1.7 0.00 0.00 0.00 62 1019.3
20200803134350 78 252 0.0 1.7 0.00 0.00 0.00 59 1019.3
20200803133350 78 252 0.0 0.9 0.00 0.00 0.00 59 1019.3
20200803132350 77 252 0.9 0.9 0.00 0.00 0.00 61 1019.2
20200803131350 77 252 0.0 1.7 0.00 0.00 0.00 58 1019.2
20200803130350 78 256 1.7 1.7 0.00 0.00 0.00 56 1019.1
20200803125351 77 277 0.0 1.7 0.00 0.00 0.00 56 1019.1
20200803124351 77 263 0.0 0.9 0.00 0.00 0.00 61 1019.0
20200803123351 77 272 0.0 1.7 0.00 0.00 0.00 60 1018.9
20200803122351 76 271 0.9 5.2 0.00 0.00 0.00 60 1018.7
20200803121351 76 252 0.0 0.9 0.00 0.00 0.00 64 1018.6
20200803120351 76 224 0.0 0.9 0.00 0.00 0.00 64 1018.5
20200803115351 75 223 0.0 0.0 0.00 0.00 0.00 67 1018.6
20200803114351 75 180 0.0 0.0 0.00 0.00 0.00 65 1018.4
20200803113351 75 180 0.0 0.9 0.00 0.00 0.00 65 1018.3
20200803112351 75 163 0.0 1.7 0.00 0.00 0.00 67 1018.3
20200803111351 74 181 0.0 1.7 0.00 0.00 0.00 68 1018.1
20200803110351 74 181 0.0 0.9 0.00 0.00 0.00 69 1018.2
20200803105351 73 178 0.0 0.9 0.00 0.00 0.00 69 1018.0
20200803104351 74 178 0.0 0.0 0.00 0.00 0.00 69 1018.0
20200803103351 74 175 0.0 1.7 0.00 0.00 0.00 69 1017.8
20200803102351 74 200 0.0 0.9 0.00 0.00 0.00 69 1017.7
20200803101351 74 200 0.9 1.7 0.00 0.00 0.00 69 1017.5
20200803100351 74 219 0.0 0.9 0.00 0.00 0.00 67 1017.4
20200803095351 73 219 0.0 0.9 0.00 0.00 0.00 69 1017.3
20200803094351 74 219 0.0 0.0 0.00 0.00 0.00 69 1016.9
20200803093351 74 219 0.0 1.7 0.00 0.00 0.00 68 1016.7
20200803092351 74 180 0.0 1.7 0.00 0.00 0.00 67 1017.0
20200803091351 75 180 0.9 1.7 0.00 0.00 0.00 66 1016.9
20200803090351 77 180 0.0 0.9 0.00 0.00 0.00 63 1017.1
20200803085351 77 250 0.0 3.5 0.00 0.00 0.00 60 1016.9
20200803084351 77 294 0.0 1.7 0.00 0.00 0.00 62 1016.6
20200803083351 77 298 0.0 1.7 0.00 0.00 0.00 65 1016.6
20200803082352 76 296 0.0 0.9 0.00 0.00 0.00 68 1016.5
20200803081351 76 296 0.9 1.7 0.00 0.00 0.00 67 1016.4
20200803080351 76 296 0.0 1.7 0.00 0.00 0.00 67 1016.2
20200803075351 76 263 0.0 0.0 0.00 0.00 0.00 66 1016.0
20200803074351 76 263 0.0 0.9 0.00 0.00 0.00 65 1016.0
20200803073351 77 263 0.0 0.9 0.00 0.00 0.00 65 1015.9
20200803072351 77 263 0.0 0.9 0.00 0.00 0.00 65 1015.8
20200803071351 78 263 0.0 1.7 0.00 0.00 0.00 62 1015.9
20200803070351 78 278 0.0 1.7 0.00 0.00 0.00 63 1015.8
20200803065351 78 303 0.0 1.7 0.00 0.00 0.00 67 1015.6
20200803064352 78 303 0.0 1.7 0.00 0.00 0.00 66 1015.6
20200803063351 78 303 0.0 1.7 0.00 0.00 0.00 69 1015.5
20200803062352 78 303 0.0 0.9 0.00 0.00 0.00 71 1015.5
20200803061352 79 302 0.0 1.7 0.00 0.00 0.00 71 1015.5
20200803060351 79 198 0.0 0.0 0.00 0.00 0.00 72 1015.4
20200803055352 79 198 0.0 1.7 0.00 0.00 0.00 71 1015.3
20200803054352 79 242 0.0 3.5 0.00 0.00 0.00 70 1015.2
20200803053352 79 229 0.0 1.7 0.00 0.00 0.00 73 1015.3
20200803052352 78 28 0.9 1.7 0.00 0.00 0.00 74 1015.3
20200803051352 78 35 0.0 1.7 0.00 0.00 0.00 75 1015.3
20200803050352 78 35 0.0 0.9 0.00 0.00 0.00 75 1015.2
20200803045352 78 346 0.0 0.0 0.00 0.00 0.00 75 1015.0
20200803044352 78 346 0.0 0.0 0.00 0.00 0.00 75 1015.1
20200803043352 78 346 0.0 0.0 0.00 0.00 0.00 75 1015.0
20200803042352 78 346 0.0 0.0 0.00 0.00 0.00 74 1015.1
20200803041352 79 346 0.0 0.0 0.00 0.00 0.00 73 1015.0
20200803040352 79 346 0.0 0.0 0.00 0.00 0.00 73 1014.7
20200803035352 79 346 0.0 0.0 0.00 0.00 0.00 73 1014.6
20200803034352 79 346 0.0 0.0 0.00 0.00 0.00 73 1014.6
20200803033352 79 344 0.0 0.0 0.00 0.00 0.00 73 1014.6
20200803032352 80 344 0.0 0.0 0.00 0.00 0.00 72 1014.6
20200803031352 80 344 0.0 0.0 0.00 0.00 0.00 71 1014.4
20200803030352 81 360 0.0 1.7 0.00 0.00 0.00 70 1014.4
20200803025352 80 88 0.0 1.7 0.00 0.00 0.00 72 1014.4
20200803024353 80 88 0.0 0.9 0.00 0.00 0.00 72 1014.3
20200803023352 80 88 0.0 3.5 0.00 0.00 0.00 71 1014.2
20200803022352 80 99 0.0 1.7 0.00 0.00 0.00 71 1014.2
20200803021352 81 107 0.0 1.7 0.00 0.00 0.00 71 1014.1
20200803020352 80 119 0.0 0.0 0.00 0.00 0.00 72 1014.1
20200803015352 81 119 0.0 0.9 0.00 0.00 0.00 71 1013.9
20200803014352 82 214 0.0 1.7 0.00 0.00 0.00 69 1013.7
20200803013353 81 53 0.0 1.7 0.00 0.00 0.00 70 1013.6
20200803012352 81 53 0.0 0.9 0.00 0.00 0.00 70 1013.5
20200803011352 81 60 0.0 0.0 0.00 0.00 0.00 70 1013.4
20200803010352 82 60 0.0 0.9 0.00 0.00 0.00 69 1013.3
20200803005352 82 60 0.0 1.7 0.00 0.00 0.00 68 1013.4
20200803004352 82 60 0.0 0.9 0.00 0.00 0.00 67 1013.2
20200803003352 83 60 0.0 0.9 0.00 0.00 0.00 66 1013.2
20200803002352 83 60 0.0 1.7 0.00 0.00 0.00 65 1013.0
20200803001352 84 60 0.9 3.5 0.00 0.00 0.00 63 1012.9
20200803000353 84 63 0.0 0.9 0.00 0.00 0.00 63 1013.0
20200802235352 85 299 0.0 3.5 0.00 0.00 0.00 60 1012.9
20200802234353 85 38 1.7 1.7 0.00 0.00 0.00 62 1012.9
20200802233353 86 38 0.0 3.5 0.00 0.00 0.00 62 1012.6
20200802232352 86 43 0.9 4.3 0.00 0.00 0.00 59 1012.7
20200802231352 87 5 3.5 4.3 0.00 0.00 0.00 57 1012.6
20200802230353 87 40 0.9 2.6 0.00 0.00 0.00 57 1012.4
20200802225353 87 65 3.5 5.2 0.00 0.00 0.00 58 1012.3
20200802224353 88 355 0.9 4.3 0.00 0.00 0.00 57 1012.3
20200802223353 88 123 1.7 7.0 0.00 0.00 0.00 56 1012.3
20200802222353 88 12 0.9 4.3 0.00 0.00 0.00 56 1012.3
20200802221353 88 53 1.7 5.2 0.00 0.00 0.00 56 1012.3
20200802220353 88 36 0.9 7.8 0.00 0.00 0.00 55 1012.3
20200802215353 89 334 2.6 6.1 0.00 0.00 0.00 56 1012.2
20200802214353 89 34 0.9 7.8 0.00 0.00 0.00 55 1012.3
20200802213353 89 34 7.0 8.7 0.00 0.00 0.00 55 1012.2
20200802212353 89 25 2.6 6.1 0.00 0.00 0.00 55 1012.4
20200802211353 90 82 1.7 6.1 0.00 0.00 0.00 55 1012.5
20200802210353 90 336 1.7 8.7 0.00 0.00 0.00 53 1012.4
20200802205353 90 19 3.5 7.8 0.00 0.00 0.00 54 1012.4
20200802204353 91 78 1.7 8.7 0.00 0.00 0.00 54 1012.3
20200802203353 90 5 3.5 7.8 0.00 0.00 0.00 55 1012.3
20200802202353 90 19 2.6 7.0 0.00 0.00 0.00 55 1012.3
20200802201353 90 337 1.7 9.6 0.00 0.00 0.00 56 1012.2
20200802200353 90 336 1.7 7.8 0.00 0.00 0.00 57 1012.3
20200802195353 89 46 0.9 6.1 0.00 0.00 0.00 59 1012.3
20200802194353 90 110 0.9 8.7 0.00 0.00 0.00 57 1012.5
20200802193353 90 329 5.2 7.8 0.00 0.00 0.00 56 1012.6
20200802192353 89 315 0.9 6.1 0.00 0.00 0.00 58 1012.7
20200802191353 90 57 4.3 8.7 0.00 0.00 0.00 57 1012.8
20200802190353 90 5 6.1 8.7 0.00 0.00 0.00 55 1012.9
20200802185353 90 273 0.9 7.0 0.00 0.00 0.00 57 1013.0
20200802184353 90 63 7.8 9.6 0.00 0.00 0.00 57 1012.9
20200802183353 90 11 0.9 5.2 0.00 0.00 0.00 58 1013.0
20200802182354 90 5 3.5 8.7 0.00 0.00 0.00 57 1013.0
20200802181353 91 79 3.5 6.1 0.00 0.00 0.00 55 1013.0
20200802180353 91 104 3.5 6.1 0.00 0.00 0.00 57 1013.0
20200802175353 90 346 0.9 5.2 0.00 0.00 0.00 58 1012.9
20200802174353 90 340 1.7 6.1 0.00 0.00 0.00 59 1012.9
20200802173353 89 75 0.9 6.1 0.00 0.00 0.00 60 1013.0
20200802172353 88 49 3.5 5.2 0.00 0.00 0.00 61 1013.1
20200802171353 88 27 1.7 4.3 0.00 0.00 0.00 61 1013.2
20200802170353 88 15 0.9 5.2 0.00 0.00 0.00 62 1013.1
20200802165353 88 338 0.9 5.2 0.00 0.00 0.00 61 1013.3
20200802164353 89 335 0.0 6.1 0.00 0.00 0.00 60 1013.2
20200802163354 87 31 1.7 5.2 0.00 0.00 0.00 63 1013.4
20200802162354 87 315 0.9 6.1 0.00 0.00 0.00 63 1013.6
20200802161353 87 344 2.6 5.2 0.00 0.00 0.00 63 1013.6
20200802160354 86 360 2.6 5.2 0.00 0.00 0.00 64 1013.7
20200802155354 86 336 0.9 6.1 0.00 0.00 0.00 65 1013.8
20200802154354 86 335 0.0 4.3 0.00 0.00 0.00 66 1013.7